Newark, NJ

5:52 AM EDT on September 29, 2016 (GMT -0400)
Newark International

Weather History for KEWR - October, 2014

Change the Weather History Date:

Tuesday, October 21, 2014

  Actual Average Record
Temperature  
Mean Temperature 60 °F 55 °F  
Max Temperature 67 °F 64 °F 84 °F (1947)
Min Temperature 53 °F 46 °F 31 °F (1952)
Degree Days  
Heating Degree Days 5 10  
Month to date heating degree days 105 156  
Since 1 July heating degree days 124 201  
Cooling Degree Days 0 0  
Month to date cooling degree days 21 14  
Year to date cooling degree days 1175 1188  
Growing Degree Days 10 (Base 50)    
Moisture  
Dew Point 50 °F    
Average Humidity 75    
Maximum Humidity 93    
Minimum Humidity 56    
Precipitation  
Precipitation T in 0.11 in 1.07 in (1988)
Month to date precipitation 2.35 2.45  
Year to date precipitation 38.49 37.64  
Snow  
Snow 0.00 in 0.00 in 0.00 in (2002)
Month to date snowfall 0.0 0.0  
Since 1 July snowfall 0.0 0.0  
Snow Depth 0.00 in    
Sea Level Pressure  
Sea Level Pressure 29.88 in    
Wind  
Wind Speed 6 mph (NE)    
Max Wind Speed 16 mph    
Max Gust Speed 23 mph    
Visibility 10 miles    
Events Rain , Thunderstorm    
T = Trace of Precipitation, MM = Missing Value Source: NWS Daily Summary

Daily Weather History Graph

Daily Weather History Graph

Search for Another Location

Airport or City:

Trip Planner

Search our weather history database for the weather conditions in past years. The results will help you decide how hot, cold, wet, or windy it might be!

Date:

Astronomy

Oct. 21, 2014 Rise Set
Actual Time 7:14 AM EDT 6:07 PM EDT
Civil Twilight 6:46 AM EDT 6:35 PM EDT
Nautical Twilight 6:14 AM EDT 7:07 PM EDT
Astronomical Twilight 5:42 AM EDT 7:38 PM EDT
Moon 4:55 AM EDT (10/21) 5:00 PM EDT (10/21)
Length of Visible Light 11h 48m
Length of Day
10h 53m
Waning Crescent, 5% of the Moon is Illuminated
Oct 21
Waning Crescent
Oct 23
New
Oct 30
First Quarter
Nov 6
Full
Nov 14
Last Quarter

Hourly Weather History & Observations

Time (EDT) Temp. Dew Point Humidity Pressure Visibility Wind Dir Wind Speed Gust Speed Precip Events Conditions
12:51 AM 54.0 °F 44.1 °F 69% 29.96 in 10.0 mi Calm Calm - N/A   Mostly Cloudy
1:51 AM 53.1 °F 44.1 °F 71% 29.94 in 10.0 mi Calm Calm - N/A   Overcast
2:51 AM 54.0 °F 45.0 °F 72% 29.93 in 10.0 mi Calm Calm - N/A   Overcast
3:51 AM 54.0 °F 45.0 °F 72% 29.91 in 10.0 mi Calm Calm - N/A   Overcast
4:51 AM 54.0 °F 45.0 °F 72% 29.91 in 10.0 mi Calm Calm - N/A   Overcast
5:51 AM 55.0 °F 45.0 °F 69% 29.90 in 10.0 mi Calm Calm - N/A   Overcast
6:51 AM 53.1 °F 44.1 °F 71% 29.89 in 10.0 mi NE 3.5 mph - N/A   Overcast
7:51 AM 55.0 °F 46.9 °F 74% 29.90 in 10.0 mi North 3.5 mph - N/A   Mostly Cloudy
8:51 AM 57.9 °F 48.9 °F 72% 29.90 in 10.0 mi NE 3.5 mph - N/A   Mostly Cloudy
9:51 AM 61.0 °F 48.0 °F 62% 29.90 in 10.0 mi NNW 3.5 mph - N/A   Mostly Cloudy
10:51 AM 62.1 °F 48.0 °F 60% 29.89 in 10.0 mi NE 4.6 mph - N/A   Mostly Cloudy
11:51 AM 64.0 °F 48.0 °F 56% 29.88 in 10.0 mi Calm Calm - N/A   Mostly Cloudy
12:51 PM 64.9 °F 51.1 °F 61% 29.86 in 10.0 mi ESE 6.9 mph - N/A   Mostly Cloudy
1:51 PM 64.9 °F 52.0 °F 63% 29.84 in 10.0 mi SE 9.2 mph - N/A   Mostly Cloudy
2:51 PM 64.9 °F 53.1 °F 65% 29.83 in 10.0 mi ESE 9.2 mph 17.3 mph N/A   Mostly Cloudy
3:51 PM 66.0 °F 53.1 °F 63% 29.82 in 10.0 mi Variable 6.9 mph - N/A   Mostly Cloudy
4:51 PM 64.0 °F 53.1 °F 67% 29.83 in 10.0 mi ESE 9.2 mph - N/A   Mostly Cloudy
5:51 PM 63.0 °F 55.0 °F 75% 29.83 in 10.0 mi East 4.6 mph - N/A   Mostly Cloudy
6:14 PM 62.6 °F 55.4 °F 77% 29.84 in 10.0 mi ENE 4.6 mph - N/A   Mostly Cloudy
6:51 PM 61.0 °F 54.0 °F 78% 29.86 in 10.0 mi NNE 9.2 mph - N/A   Overcast
7:33 PM 60.8 °F 53.6 °F 77% 29.87 in 10.0 mi North 9.2 mph - N/A Thunderstorm Thunderstorm
7:51 PM 60.1 °F 52.0 °F 75% 29.88 in 9.0 mi North 8.1 mph - 0.00 in Rain , Thunderstorm Light Thunderstorms and Rain
8:02 PM 59.0 °F 51.8 °F 77% 29.88 in 5.0 mi North 9.2 mph - 0.00 in Rain , Thunderstorm Thunderstorms with Small Hail
8:18 PM 57.2 °F 51.8 °F 82% 29.88 in 9.0 mi Variable 4.6 mph - 0.00 in Rain , Thunderstorm Light Thunderstorms and Rain
8:39 PM 57.2 °F 53.6 °F 88% 29.89 in 9.0 mi NNE 11.5 mph - 0.00 in Rain , Thunderstorm Light Thunderstorms and Rain
8:51 PM 57.9 °F 53.1 °F 84% 29.88 in 10.0 mi NNE 13.8 mph - 0.00 in   Overcast
9:51 PM 57.0 °F 52.0 °F 83% 29.89 in 10.0 mi NNE 9.2 mph - N/A   Mostly Cloudy
10:51 PM 55.0 °F 53.1 °F 93% 29.91 in 10.0 mi NNE 8.1 mph - N/A   Mostly Cloudy
11:51 PM 55.9 °F 53.1 °F 90% 29.91 in 10.0 mi North 13.8 mph - N/A   Mostly Cloudy